KAITUO 1B
1 40912U 15049P   19213.02730072  .00000514  00000-0  27272-4 0  9996
2 40912  97.4495 219.8172 0015735  27.4608  35.5935 15.19656613213890
TIANWANG 1C (TW-1C)
1 40926U 15051B   19213.37410970  .00007198  00000-0  10343-3 0  9999
2 40926  97.1326 259.5033 0007293 197.6281 217.7770 15.56371993216956
TIANWANG 1B (TW-1B)
1 40927U 15051C   19213.38955181  .00006623  00000-0  10108-3 0  9990
2 40927  97.1358 258.8009 0007213 209.8160 274.1821 15.54751732216800
TIANWANG 1A (TW-1A)
1 40928U 15051D   19213.33548765  .00001785  00000-0  45302-4 0  9991
2 40928  97.1435 243.6716 0009345 277.5702 209.2562 15.40951139215893
LAPAN A2
1 40931U 15052B   19213.04947713  .00000539  00000-0 -14077-4 0  9992
2 40931   5.9962 107.2999 0012918  46.7676 313.5288 14.76609966207681
LQSAT
1 40958U 15057A   19212.76477650 -.00000006  00000-0  66273-5 0  9997
2 40958  97.8964 280.7929 0019610 102.5432 257.7971 14.73084891205147
CHUBUSAT 2
1 41338U 16012B   19212.47538318 +.00000202 +00000-0 +89016-5 0  9996
2 41338 031.0020 232.8743 0013772 167.0937 193.0052 15.00162022189343
CHUBUSAT 3
1 41339U 16012C   19212.77251660  .00000164  00000-0  59123-5 0  9995
2 41339  31.0102 229.0246 0013540 177.7038 182.3657 15.00336730189389
OUFTI-1
1 41458U 16025C   19212.78076095  .00001028  00000-0  56467-4 0  9996
2 41458  98.1026 301.8175 0165679 211.7665 147.3483 15.05873963179056
E-STAR-2
1 41459U 16025D   19213.20626774  .00000460  00000-0  28043-4 0  9998
2 41459  98.1005 301.9004 0166999 211.9299 147.1762 15.05500052179095
AAUSAT 4
1 41460U 16025E   19212.79570163  .00001939  00000-0  10072-3 0  9997
2 41460  98.0968 302.8185 0157452 205.4541 153.8868 15.07411420179167
NUSAT 1
1 41557U 16033B   19213.41824352  .00000810  00000-0  33017-4 0  9997
2 41557  97.4180 300.6654 0014973 138.5324 221.7054 15.27275845176761
BEESAT 4
1 41619U 16040W   19212.74251459 +.00000823 +00000-0 +37713-4 0  9992
2 41619 097.3648 274.1595 0010051 226.0596 133.9812 15.23193585160411
PRATHAM
1 41783U 16059A   19212.75569857  .00000037  00000-0  16455-4 0  9996
2 41783  98.0645 271.3803 0032291 247.6574 112.1205 14.63001556151845
ALSAT 1N
1 41789U 16059G   19213.39100307  .00000012  00000-0  11362-4 0  9999
2 41789  98.0676 274.0908 0027276 234.8964 124.9689 14.64252107152040
NAYIF 1
1 42017U 17008BX  19213.25045387  .00000905  00000-0  38445-4 0  9992
2 42017  97.4007 279.8917 0006854  30.5850 329.5786 15.25603325136563
MAX VALIER SAT
1 42778U 17036P   19213.37966105  .00000582  00000-0  28395-4 0  9994
2 42778  97.3515 270.0776 0014079  73.9613 286.3173 15.22063983116882
